Weather History for Mosinee, WI

Change the Weather History Date:

Wednesday, February 27, 2013

  Actual Average Record
Temperature  
Mean Temperature 30 °F -  
Max Temperature 32 °F 29 °F 41 °F (2004)
Min Temperature 28 °F 12 °F -14 °F (2014)
Degree Days  
Heating Degree Days 35    
Moisture  
Dew Point 27 °F    
Average Humidity 87    
Maximum Humidity 100    
Minimum Humidity 80    
Precipitation  
Precipitation 0.00 in - - ()
Sea Level Pressure  
Sea Level Pressure 29.76 in    
Wind  
Wind Speed 14 mph (North)    
Max Wind Speed 16 mph    
Max Gust Speed 25 mph    
Visibility 8 miles    
Events Snow    
Averages and records for this station are not official NWS values.
T = Trace of Precipitation, MM = Missing Value Source: NWS Daily Summary

Daily Weather History Graph

Daily Weather History Graph

Search for Another Location

Airport:

Trip Planner

Search our weather history database for the weather conditions in past years. The results will help you decide how hot, cold, wet, or windy it might be!

Date:

Astronomy

Feb. 27, 2013 Rise Set
Actual Time 6:39 AM CST 5:44 PM CST
Civil Twilight 6:09 AM CST 6:13 PM CST
Nautical Twilight 5:36 AM CST 6:47 PM CST
Astronomical Twilight 5:02 AM CST 7:21 PM CST
Moon 8:13 PM CST (2/27) 7:07 AM CST (2/27)
Length of Visible Light 12h 03m
Length of Day
11h 04m
Waning Gibbous, 96% of the Moon is Illuminated
Feb 27
Waning Gibbous
Mar 4
Last Quarter
Mar 11
New
Mar 19
First Quarter
Mar 27
Full

Hourly Weather History & Observations

Time (CST) Temp. Windchill Dew Point Humidity Pressure Visibility Wind Dir Wind Speed Gust Speed Precip Events Conditions
12:15 AM 30.2 °F 18.9 °F 24.8 °F 80% 29.75 in 10.0 mi NNE 16.1 mph 25.3 mph N/A   Overcast
12:35 AM 30.2 °F 20.2 °F 24.8 °F 80% 29.75 in 10.0 mi NNE 12.7 mph 19.6 mph N/A   Overcast
12:55 AM 30.2 °F 18.9 °F 24.8 °F 80% 29.75 in 10.0 mi North 16.1 mph 23.0 mph N/A   Overcast
1:35 AM 30.2 °F 19.3 °F 24.8 °F 80% 29.74 in 10.0 mi NNE 15.0 mph 24.2 mph N/A   Overcast
1:55 AM 30.2 °F 20.2 °F 24.8 °F 80% 29.74 in 10.0 mi North 12.7 mph 18.4 mph N/A   Overcast
2:15 AM 30.2 °F 20.2 °F 24.8 °F 80% 29.73 in 10.0 mi NNE 12.7 mph 18.4 mph N/A   Overcast
2:35 AM 30.2 °F 20.8 °F 24.8 °F 80% 29.73 in 10.0 mi NNE 11.5 mph 20.7 mph N/A   Overcast
2:55 AM 30.2 °F 20.8 °F 24.8 °F 80% 29.73 in 10.0 mi NNE 11.5 mph - N/A   Overcast
3:15 AM 30.2 °F 21.9 °F 24.8 °F 80% 29.73 in 10.0 mi North 9.2 mph - N/A   Overcast
3:35 AM 30.2 °F 21.3 °F 24.8 °F 80% 29.73 in 10.0 mi NNE 10.4 mph 17.3 mph N/A   Overcast
3:55 AM 30.2 °F 20.2 °F 24.8 °F 80% 29.73 in 10.0 mi North 12.7 mph 18.4 mph N/A   Overcast
4:15 AM 30.2 °F 20.8 °F 24.8 °F 80% 29.73 in 10.0 mi North 11.5 mph 18.4 mph N/A   Overcast
4:35 AM 30.2 °F 20.2 °F 26.6 °F 86% 29.72 in 10.0 mi North 12.7 mph 18.4 mph N/A   Overcast
5:50 AM 28.4 °F 17.0 °F 26.6 °F 93% 29.72 in 3.0 mi North 15.0 mph 21.9 mph N/A Snow Light Snow
6:45 AM 28.4 °F 16.6 °F 26.6 °F 93% 29.71 in 1.2 mi North 16.1 mph 23.0 mph N/A Snow Light Snow
7:50 AM 28.4 °F 16.6 °F 26.6 °F 93% 29.71 in 2.0 mi North 16.1 mph 23.0 mph N/A Snow Light Snow
8:50 AM 28.4 °F 17.0 °F 26.6 °F 93% 29.72 in 1.0 mi North 15.0 mph 20.7 mph N/A Snow Light Snow
9:45 AM 28.4 °F 17.5 °F 26.6 °F 93% 29.72 in 1.0 mi North 13.8 mph 21.9 mph N/A Snow Light Snow
10:55 AM 30.2 °F 19.3 °F 26.6 °F 86% 29.72 in 7.0 mi North 15.0 mph 19.6 mph N/A Snow Light Snow
11:45 AM 30.2 °F 20.8 °F 26.6 °F 86% 29.72 in 10.0 mi North 11.5 mph 19.6 mph N/A   Overcast
12:50 PM 32.0 °F 23.0 °F 26.6 °F 80% 29.72 in 10.0 mi NNE 11.5 mph 16.1 mph N/A   Overcast
1:45 PM 32.0 °F 22.5 °F 26.6 °F 80% 29.72 in 10.0 mi North 12.7 mph - N/A   Overcast
2:25 PM 32.0 °F 23.0 °F 28.4 °F 87% 29.72 in 2.0 mi North 11.5 mph - N/A Snow Light Snow
2:45 PM 32.0 °F 23.0 °F 30.2 °F 93% 29.72 in 1.8 mi North 11.5 mph - N/A Snow Light Snow
3:45 PM 32.0 °F 22.5 °F 30.2 °F 93% 29.73 in 7.0 mi North 12.7 mph 18.4 mph N/A Snow Light Snow
4:45 PM 30.2 °F 20.8 °F 30.2 °F 100% 29.75 in 2.0 mi North 11.5 mph 18.4 mph N/A Snow Light Snow
5:45 PM 30.2 °F 19.8 °F 28.4 °F 93% 29.77 in 7.0 mi North 13.8 mph 25.3 mph N/A Snow Light Snow
6:51 PM 30.2 °F 19.3 °F 28.4 °F 93% 29.80 in 5.0 mi North 15.0 mph 19.6 mph N/A Snow Light Snow
8:45 PM 30.2 °F 19.8 °F 28.4 °F 93% 29.83 in 10.0 mi North 13.8 mph - N/A Snow Light Snow
9:15 PM 30.2 °F 20.8 °F 28.4 °F 93% 29.83 in 10.0 mi North 11.5 mph 19.6 mph N/A   Overcast
9:35 PM 30.2 °F 19.3 °F 28.4 °F 93% 29.84 in 10.0 mi North 15.0 mph 21.9 mph N/A Snow Light Snow
9:45 PM 30.2 °F 18.9 °F 26.6 °F 86% 29.84 in 10.0 mi North 16.1 mph 20.7 mph N/A Snow Light Snow
9:55 PM 30.2 °F 19.3 °F 28.4 °F 93% 29.84 in 10.0 mi North 15.0 mph 20.7 mph N/A Snow Light Snow
10:55 PM 30.2 °F 20.8 °F 28.4 °F 93% 29.84 in 10.0 mi North 11.5 mph - N/A Snow Light Snow
11:15 PM 30.2 °F 19.3 °F 26.6 °F 86% 29.84 in 10.0 mi North 15.0 mph 20.7 mph N/A   Overcast
11:35 PM 32.0 °F 22.5 °F 26.6 °F 80% 29.84 in 10.0 mi North 12.7 mph 18.4 mph N/A   Overcast